Location: Unspecified
(0.0000°N, 0.0000°E)
Time: 14:40:05
(UTC+00:00)

STARLINK-35385 - Pass Details

Date: 21 February 2026
Orbit: 474 x 476 km, 53.2° (Epoch: 14 March)

Event Time Altitude Azimuth Distance (km) Brightness Sun altitude
Rises 19:01:52 0° 201° (SSW) 2,518 6.5 -11.9°
Reaches altitude 10° 19:04:08 10° 192° (SSW) 1,637 5.3 -12.4°
Maximum altitude 19:07:33 36° 124° (SE) 760 3.0 -13.3°
Enters shadow 19:09:10 24° 75° (ENE) 1,020 3.4 -13.7°
